Regional Weather Roundup
Issued by NWS Sioux Falls, SD

Home | Current Version | Previous Version | Graphics & Text | Print | Product List | Glossary On
Versions: 1 2 3 4 5 6 7 8 9 10 11 12 13 14 15 16 17 18 19 20 21 22 23 24 25 26 27 28 29 30 31 32 33 34 35 36 37 38 39 40 41 42 43 44 45 46 47 48 49 50
000
ASUS43 KFSD 270202
RWRFSD

WEATHER ROUNDUP FOR SE SOUTH DAKOTA/SW MINNESOTA/NW IOWA
NATIONAL WEATHER SERVICE SIOUX FALLS SD
900 PM CDT THU MAR 26 2015

NOTE: "FAIR" INDICATES FEW OR NO CLOUDS BELOW 12,000 FEET WITH NO
SIGNIFICANT WEATHER AND OR OBSTRUCTIONS TO VISIBILITY.


SDZ038>040-050-052>070-270300-
SOUTHEAST SOUTH DAKOTA

CITY           SKY/WX    TMP DP  RH WIND       PRES   REMARKS
CHAMBERLAIN    NOT AVBL
HURON          CLEAR     29  14  53 NE10      30.25R WCI  20
MADISON        FAIR      25  18  74 N9        30.21R WCI  15
MITCHELL       CLEAR     31  19  61 N10       30.24R WCI  22
SIOUX FALLS    PTCLDY    29  18  63 N12       30.21R WCI  19
WINNER         CLOUDY    34  29  82 CALM      30.22S
YANKTON        CLOUDY    36  25  64 NW8       30.22R
$$

MNZ071-072-080-081-089-090-097-098-270300-
SOUTHWEST MINNESOTA

CITY           SKY/WX    TMP DP  RH WIND       PRES   REMARKS
FAIRMONT       CLOUDY    30  10  43 N13       30.17R WCI  20
JACKSON        CLOUDY    30  18  59 VRB15G24  30.19R WCI  19
LUVERNE        CLEAR     30  19  64 N9G16     30.21R WCI  22
MARSHALL       CLEAR     27  14  59 N10       30.22R WCI  17
MONTEVIDEO     CLEAR     27  16  63 N13       30.23R WCI  16
PIPESTONE      CLEAR     27  16  63 N6        30.19R WCI  20
REDWOOD FALLS  CLEAR     26  17  68 NW6       30.20R WCI  19
TRACY          CLEAR     26  20  76 NW3       30.21R
WINDOM         CLEAR     25  18  74 NW9       30.19R WCI  15
WORTHINGTON    CLEAR     25  16  68 N10       30.20R WCI  15
$$

IAZ001>003-012>014-020>022-031-032-NEZ013-014-SDZ071-270300-
NORTHWEST IOWA

CITY           SKY/WX    TMP DP  RH WIND       PRES   REMARKS
DENISON        CLOUDY    36  32  87 N6        30.15R
ESTHERVILLE    CLOUDY    29  18  63 N18G26    30.18  WCI  16
SIOUX CITY     CLOUDY    37  29  72 NW6       30.19R
SPENCER        CLEAR     30  18  60 N16       30.18R WCI  19
$$

ABBREVIATIONS USED IN REMARKS
   TC - TEMPERATURE IN CELSIUS
  WCI - WIND CHILL INDEX
   HX - HEAT INDEX
  VSB - VISIBILITY



USA.gov is the U.S. government's official web portal to all federal, state and local government web resources and services.